Weather History for Livingston, MT

Change the Weather History Date:

Sunday, May 26, 2013

  Actual Average Record
Temperature  
Mean Temperature 52 °F 53 °F  
Max Temperature 69 °F 67 °F 87 °F (1958)
Min Temperature 37 °F 39 °F 29 °F (2005)
Degree Days  
Heating Degree Days 14 12  
Month to date heating degree days 392  
Since 1 July heating degree days 7340  
Cooling Degree Days 0 0  
Month to date cooling degree days 0  
Year to date cooling degree days 0  
Growing Degree Days 2 (Base 50)    
Moisture  
Dew Point 40 °F    
Average Humidity 61    
Maximum Humidity 89    
Minimum Humidity 35    
Precipitation  
Precipitation 0.04 in 0.09 in 0.92 in (1985)
Month to date precipitation 2.16  
Year to date precipitation 5.76  
Sea Level Pressure  
Sea Level Pressure 29.89 in    
Wind  
Wind Speed 7 mph (NW)    
Max Wind Speed 18 mph    
Max Gust Speed 23 mph    
Visibility 10 miles    
Events Rain , Thunderstorm    
T = Trace of Precipitation, MM = Missing Value Source: NWS Daily Summary

Daily Weather History Graph

Daily Weather History Graph

Search for Another Location

Airport:

Trip Planner

Search our weather history database for the weather conditions in past years. The results will help you decide how hot, cold, wet, or windy it might be!

Date:

Astronomy

May. 26, 2013 Rise Set
Actual Time 5:39 AM MDT 8:58 PM MDT
Civil Twilight 5:03 AM MDT 9:35 PM MDT
Nautical Twilight 4:15 AM MDT 10:22 PM MDT
Astronomical Twilight 3:16 AM MDT 11:23 PM MDT
Moon 10:47 PM MDT (5/26) 7:13 AM MDT (5/26)
Length of Visible Light 16h 32m
Length of Day
15h 19m
Waning Gibbous, 96% of the Moon is Illuminated
May 26
Waning Gibbous
May 31
Last Quarter
Jun 8
New
Jun 16
First Quarter
Jun 23
Full

Hourly Weather History & Observations

Time (MDT) Temp. Windchill Dew Point Humidity Pressure Visibility Wind Dir Wind Speed Gust Speed Precip Events Conditions
12:53 AM 48.9 °F - 37.0 °F 64% 29.93 in 10.0 mi NW 5.8 mph - N/A   Clear
1:53 AM 48.9 °F - 37.0 °F 64% 29.92 in 10.0 mi West 4.6 mph - N/A   Clear
2:53 AM 44.1 °F 41.5 °F 36.0 °F 73% 29.93 in 10.0 mi West 4.6 mph - N/A   Clear
3:53 AM 41.0 °F 39.0 °F 35.1 °F 79% 29.94 in 10.0 mi SSW 3.5 mph - N/A   Clear
4:53 AM 39.9 °F 37.8 °F 35.1 °F 83% 29.94 in 10.0 mi West 3.5 mph - N/A   Clear
5:53 AM 37.0 °F 34.5 °F 34.0 °F 89% 29.96 in 10.0 mi West 3.5 mph - N/A   Clear
6:53 AM 43.0 °F 40.3 °F 37.9 °F 82% 29.95 in 10.0 mi NNW 4.6 mph - N/A   Clear
7:53 AM 46.0 °F 44.8 °F 37.9 °F 73% 29.94 in 10.0 mi NNW 3.5 mph - N/A   Clear
8:53 AM 51.1 °F - 39.0 °F 63% 29.93 in 10.0 mi Calm Calm - N/A   Clear
9:53 AM 57.9 °F - 39.0 °F 49% 29.91 in 10.0 mi ENE 11.5 mph - N/A   Clear
10:53 AM 62.1 °F - 41.0 °F 46% 29.88 in 10.0 mi East 12.7 mph - N/A   Clear
11:53 AM 64.0 °F - 39.9 °F 41% 29.86 in 10.0 mi ENE 16.1 mph - N/A   Clear
12:53 PM 64.0 °F - 42.1 °F 45% 29.86 in 10.0 mi East 11.5 mph - N/A   Mostly Cloudy
1:53 PM 64.0 °F - 41.0 °F 43% 29.85 in 10.0 mi East 9.2 mph - N/A   Overcast
2:53 PM 66.9 °F - 43.0 °F 42% 29.84 in 10.0 mi East 18.4 mph 23.0 mph N/A   Scattered Clouds
3:53 PM 66.9 °F - 39.0 °F 36% 29.83 in 10.0 mi East 11.5 mph - N/A   Partly Cloudy
4:12 PM 66.2 °F - 37.4 °F 35% 29.90 in 10.0 mi ESE 9.2 mph - N/A Thunderstorm Mostly Cloudy
4:27 PM 60.8 °F - 46.4 °F 59% 29.91 in 4.0 mi Variable 3.5 mph 23.0 mph 0.02 in Rain Rain
4:53 PM 62.1 °F - 46.0 °F 56% 29.85 in 10.0 mi East 12.7 mph - 0.02 in   Scattered Clouds
5:53 PM 63.0 °F - 44.1 °F 50% 29.85 in 10.0 mi ENE 3.5 mph - N/A   Clear
6:53 PM 61.0 °F - 44.1 °F 54% 29.82 in 10.0 mi North 11.5 mph - N/A   Clear
7:53 PM 62.1 °F - 44.1 °F 52% 29.81 in 10.0 mi North 5.8 mph - N/A   Clear
8:53 PM 55.9 °F - 43.0 °F 62% 29.82 in 10.0 mi WNW 5.8 mph - N/A   Clear
9:53 PM 54.0 °F - 41.0 °F 62% 29.86 in 10.0 mi WSW 15.0 mph 18.4 mph 0.00 in   Mostly Cloudy
10:53 PM 52.0 °F - 43.0 °F 71% 29.88 in 10.0 mi WSW 12.7 mph - 0.00 in Rain Light Rain
11:11 PM 51.8 °F - 42.8 °F 71% 29.97 in 10.0 mi WSW 12.7 mph - 0.00 in Rain , Thunderstorm Light Rain
11:26 PM 50.0 °F - 44.6 °F 82% 29.95 in 6.0 mi SW 4.6 mph - 0.02 in Rain Light Rain
11:53 PM 46.9 °F - 43.0 °F 86% 29.86 in 10.0 mi SSW 4.6 mph - 0.02 in   Mostly Cloudy